[[{"header":{"parameterUnit":"m.s-1","parameterCategory":1,"la1":30.2991,"la2":30.254,"lo1":-89.0895,"lo2":-89.0444,"dy":0.0017,"dx":0.0017,"nx":28,"ny":28,"refTime":"2024-08-08T21:00:00:Z","depth":0,"parameterNumber":2,"parameterNumberName":"U-component_of_WINDS"},"data":[0,0,0,0,0,0,0,0,0,0,0,0,0,0,0,0,0,0,0,0,0,0,0,0,0,0,0,0,0,0,0,0,0,0,0,0,0,0,0,0,0,0,0,0,0,0,0,0,0,0,0,0,0,0,0,0,0,0,-2.1028,-2.1028,0,-2.1024,-2.1024,-2.1024,-2.0924,-2.0921,-2.0918,-2.0916,-2.0916,-2.0918,-2.092,0,0,0,0,0,0,0,0,0,0,0,0,0,-2.095,-2.0952,-2.1028,-2.1028,-2.1027,-2.1024,-2.1024,-2.1024,-2.0924,-2.0921,-2.0918,-2.0915,-2.0915,-2.0918,-2.0921,0,0,0,0,0,0,0,0,0,0,0,0,0,-2.0969,-2.0953,-2.1028,-2.0977,-2.0973,-2.1024,-2.1024,-2.1024,-2.0925,-2.0921,-2.0917,-2.0913,-2.0914,-2.0917,-2.0921,-2.1021,0,0,-2.0932,-2.0934,0,0,0,0,0,0,0,0,-2.0968,-2.0972,-2.0985,-2.0981,-2.0976,-2.097,-2.0996,-2.1023,-2.0926,-2.0943,-2.0916,-2.0911,-2.0937,-2.0939,-2.0947,-2.1021,-2.1021,-2.0932,-2.0935,-2.0936,-2.0937,0,0,0,0,0,0,0,-2.0967,-2.0972,-2.1026,-2.0985,-2.098,-2.0955,-2.0954,-2.1001,-2.0962,-2.0941,-2.0934,-2.0935,-2.0934,-2.0943,-2.0946,-2.1021,-2.0932,-2.0935,-2.0938,-2.0939,-2.1174,-2.1178,0,0,0,0,0,0,-2.0972,-2.0971,-2.1026,-2.1026,-2.0962,-2.096,-2.0958,-2.0976,-2.0961,-2.0955,-2.0938,-2.093,-2.0939,-2.0942,-2.0945,-2.1059,-2.0936,-2.0939,-2.0941,-2.117,-2.1175,-2.1179,0,0,0,0,0,0,-2.0971,-2.0978,-2.1026,-2.0997,-2.1001,-2.0965,-2.0986,-2.0978,-2.0987,-2.0959,-2.0952,-2.0955,-2.0936,-2.094,-2.1002,-2.1058,-2.0941,-2.0944,-2.1165,-2.1171,-2.1177,-2.1289,0,0,0,0,0,0,-2.0969,-2.0978,-2.1016,-2.0998,-2.1003,-2.1083,-2.099,-2.0981,-2.0993,-2.0983,-2.0972,-2.0967,-2.0933,-2.0997,-2.1006,-2.1061,-2.0947,-2.116,-2.1168,-2.1175,-2.128,-2.1298,-2.1313,0,0,0,0,0,-2.0967,-2.1049,-2.1018,-2.1025,-2.1049,-2.1086,-2.1089,-2.1048,-2.0998,-2.1035,-2.1017,-2.0967,-2.1051,-2.1004,-2.1013,-2.107,-2.1156,-2.1166,-2.1175,-2.1273,-2.1295,-2.1313,0,0,0,0,0,0,-2.1076,-2.1046,-2.1011,-2.109,-2.1091,-2.1069,-2.1115,-2.1073,-2.1089,-2.1079,-2.1028,-2.1027,-2.1096,-2.1089,-2.1038,-2.1164,-2.1094,-2.1106,-2.1166,-2.1187,-2.1203,-2.1203,-2.095,0,0,0,0,0,-2.1109,-2.1141,-2.1114,-2.1186,-2.1188,-2.1152,-2.1167,-2.1134,-2.1134,-2.1135,-2.1121,-2.1123,-2.1149,-2.1168,-2.1191,-2.1279,-2.1274,-2.1322,-2.1339,-2.1353,-2.1363,-2.1406,-2.1426,-2.1209,-2.1209,-2.1209,0,0,-2.1178,-2.1166,-2.119,-2.1207,-2.1204,-2.1239,-2.1153,-2.1194,-2.1219,-2.1141,-2.1197,-2.1187,-2.1187,-2.1261,-2.1293,-2.1258,-2.1422,-2.1364,-2.1376,-2.1378,-2.1418,-2.1438,-2.1457,-2.1216,-2.1215,-2.1214,0,0,-2.1321,-2.1316,-2.1373,-2.1372,-2.1367,-2.1342,-2.1356,-2.134,-2.133,-2.1385,-2.1327,-2.1356,-2.1403,-2.1404,-2.1411,-2.1551,-2.1506,-2.1561,-2.1648,-2.169,-2.1708,-2.1722,-2.177,-2.1788,-2.1571,-2.1571,-2.1571,0,-2.1408,-2.1456,-2.1409,-2.1453,-2.1461,-2.1391,-2.1448,-2.145,-2.1454,-2.1462,-2.1422,-2.1477,-2.1472,-2.1544,-2.1578,-2.1587,-2.16,-2.1561,-2.1709,-2.1723,-2.1736,-2.1781,-2.18,-2.1578,-2.1577,-2.1576,-2.1576,0,-2.1562,-2.1597,-2.1644,-2.1647,-2.1661,-2.1713,-2.1673,-2.1693,-2.1659,-2.1638,-2.1695,-2.1686,-2.1704,-2.1719,-2.1688,-2.1787,-2.1764,-2.1718,-2.1646,-2.1764,-2.1805,-2.1823,-2.1587,-2.1585,-2.1583,-2.1581,0,0,-2.1775,-2.1749,-2.1767,-2.1766,-2.1755,-2.1781,-2.1828,-2.1844,-2.1862,-2.1867,-2.1904,-2.1945,-2.19,-2.1908,-2.1876,-2.1914,-2.2022,-2.1862,-2.1861,-2.189,-2.2128,-2.2162,-2.2183,-2.1992,-2.1996,-2.1998,-2.2127,0,-2.1911,-2.1988,-2.1945,-2.2029,-2.2059,-2.1991,-2.2032,-2.203,-2.2011,-2.2034,-2.2014,-2.2043,-2.1983,-2.1987,-2.2021,-2.2002,-2.2069,-2.1992,-2.2026,-2.2028,-2.2026,-2.2205,-2.2241,-2.2363,-2.2143,-2.2146,-2.2148,0,-2.208,-2.2089,-2.2175,-2.2155,-2.2166,-2.2203,-2.2213,-2.2237,-2.2232,-2.2216,-2.2223,-2.2181,-2.2226,-2.2156,-2.2215,-2.2164,-2.2175,-2.2168,-2.2171,-2.2172,-2.2094,-2.2208,-2.2401,-2.2419,-2.2174,-2.2172,-2.217,0,-2.2223,-2.2258,-2.2312,-2.2314,-2.2293,-2.232,-2.2313,-2.2305,-2.2317,-2.2326,-2.2332,-2.2348,-2.2356,-2.2369,-2.2331,-2.2284,-2.2395,-2.2323,-2.2382,-2.2383,-2.2408,-2.2406,-2.2604,-2.2419,-2.2419,-2.2418,-2.2418,0,-2.2379,-2.2433,-2.2376,-2.2409,-2.2468,-2.2419,-2.2478,-2.2464,-2.2457,-2.2486,-2.243,-2.2459,-2.2409,-2.2433,-2.2405,-2.2457,-2.2462,-2.2449,-2.2441,-2.2453,-2.2454,-2.2458,-2.2448,-2.2423,-2.2422,-2.2421,-2.242,0,-2.2548,-2.2512,-2.2567,-2.2542,-2.2536,-2.258,-2.2559,-2.2589,-2.2566,-2.2604,-2.261,-2.2574,-2.2599,-2.2563,-2.2586,-2.2566,-2.2637,-2.2617,-2.2638,-2.2631,-2.2692,-2.2685,-2.2897,-2.2921,-2.2723,-2.2725,-2.2727,0,-2.2649,-2.2689,-2.2667,-2.2681,-2.2676,-2.2701,-2.2712,-2.2665,-2.2678,-2.2674,-2.2705,-2.2724,-2.2737,-2.2781,-2.2757,-2.2773,-2.2751,-2.2824,-2.2754,-2.2764,-2.2749,-2.2746,-2.2749,-2.2839,-2.2841,-2.2843,-2.2845,0,-2.283,-2.281,-2.2826,-2.2835,-2.2849,-2.2855,-2.2857,-2.2872,-2.2823,-2.2841,-2.2864,-2.2874,-2.2895,-2.2915,-2.2924,-2.2917,-2.2873,-2.2867,-2.2881,-2.2893,-2.2902,-2.2895,-2.2675,-2.2862,-2.286,-2.2859,-2.2858,-2.2857,-2.2967,-2.2997,-2.2985,-2.3005,-2.3001,-2.3003,-2.3028,-2.3007,-2.3026,-2.3037,-2.3009,-2.3039,-2.3032,-2.3039,-2.3037,-2.306,-2.3028,-2.3049,-2.3054,-2.3059,-2.3067,-2.2901,-2.3062,-2.3061,-2.3061,-2.306,-2.306,0,-2.3143,-2.3131,-2.3149,-2.3151,-2.3167,-2.3122,-2.3121,-2.3136,-2.3163,-2.3159,-2.3172,-2.3198,-2.3217,-2.3194,-2.3208,-2.323,-2.321,-2.3235,-2.3232,-2.323,-2.3097,-2.3082,-2.3251,-2.3251,-2.3251,-2.3251,-2.3251,-2.3251,-2.3236,-2.3284,-2.3262,-2.3307,-2.3295,-2.3322,-2.3325,-2.3327,-2.3323,-2.3354,-2.3368,-2.3352,-2.334,-2.3353,-2.3367,-2.336,-2.3367,-2.3399,-2.3384,-2.3259,-2.324,-2.3222,-2.3208,-2.3401,-2.3402,-2.3516,-2.3517,-2.3518]},{"header":{"parameterUnit":"m.s-1","parameterCategory":1,"la1":30.2991,"la2":30.254,"lo1":-89.0895,"lo2":-89.0444,"dy":0.0017,"dx":0.0017,"nx":28,"ny":28,"refTime":"2024-08-08T21:00:00:Z","depth":0,"parameterNumber":3,"parameterNumberName":"V-component_of_WINDS"},"data":[0,0,0,0,0,0,0,0,0,0,0,0,0,0,0,0,0,0,0,0,0,0,0,0,0,0,0,0,0,0,0,0,0,0,0,0,0,0,0,0,0,0,0,0,0,0,0,0,0,0,0,0,0,0,0,0,0,0,-2.8938,-2.8938,0,-2.8863,-2.8863,-2.8862,-2.8795,-2.8794,-2.8793,-2.8792,-2.8716,-2.8714,-2.8713,0,0,0,0,0,0,0,0,0,0,0,0,0,-2.9021,-2.902,-2.8939,-2.8938,-2.8937,-2.8864,-2.8862,-2.8861,-2.8795,-2.8794,-2.8793,-2.8792,-2.8716,-2.8714,-2.8713,0,0,0,0,0,0,0,0,0,0,0,0,0,-2.897,-2.902,-2.8939,-2.8895,-2.889,-2.8864,-2.8862,-2.8861,-2.8795,-2.8794,-2.8793,-2.8792,-2.8716,-2.8715,-2.8713,-2.8724,0,0,-2.8707,-2.8706,0,0,0,0,0,0,0,0,-2.8973,-2.8967,-2.8902,-2.8898,-2.8892,-2.8837,-2.8863,-2.8815,-2.8795,-2.8831,-2.8792,-2.8791,-2.8757,-2.8752,-2.874,-2.872,-2.8717,-2.8706,-2.8705,-2.8704,-2.8704,0,0,0,0,0,0,0,-2.8976,-2.897,-2.8909,-2.8901,-2.8895,-2.8877,-2.8869,-2.8854,-2.8802,-2.8828,-2.8823,-2.8815,-2.8754,-2.8742,-2.8738,-2.8716,-2.8706,-2.8705,-2.8704,-2.8703,-2.8696,-2.8697,0,0,0,0,0,0,-2.8987,-2.8973,-2.8911,-2.8907,-2.893,-2.8877,-2.8867,-2.8856,-2.8802,-2.8792,-2.8816,-2.8812,-2.8746,-2.874,-2.8735,-2.8741,-2.8704,-2.8703,-2.8701,-2.8695,-2.8697,-2.8698,0,0,0,0,0,0,-2.8989,-2.8982,-2.8914,-2.8938,-2.8928,-2.8877,-2.8865,-2.8855,-2.8843,-2.8792,-2.8783,-2.8814,-2.8745,-2.8738,-2.8726,-2.8738,-2.8702,-2.87,-2.8694,-2.8696,-2.8697,-2.8756,0,0,0,0,0,0,-2.8992,-2.8983,-2.8988,-2.8939,-2.8927,-2.8908,-2.8866,-2.8855,-2.884,-2.8834,-2.8788,-2.8779,-2.8743,-2.8729,-2.8724,-2.8734,-2.8698,-2.8693,-2.8695,-2.8697,-2.8753,-2.8759,-2.8765,0,0,0,0,0,-2.8995,-2.9009,-2.8989,-2.8982,-2.8932,-2.8909,-2.8902,-2.8861,-2.8841,-2.8845,-2.8811,-2.878,-2.8737,-2.8729,-2.8722,-2.8732,-2.8692,-2.8694,-2.8697,-2.875,-2.8758,-2.8765,0,0,0,0,0,0,-2.9062,-2.9002,-2.8979,-2.8977,-2.8948,-2.8898,-2.8901,-2.8872,-2.8848,-2.8843,-2.8793,-2.8783,-2.8776,-2.8753,-2.8745,-2.8737,-2.871,-2.8711,-2.8753,-2.876,-2.8766,-2.8771,-2.8697,0,0,0,0,0,-2.9076,-2.9063,-2.9011,-2.9014,-2.9001,-2.8953,-2.8942,-2.8912,-2.888,-2.8868,-2.8834,-2.8804,-2.8783,-2.877,-2.8749,-2.8749,-2.8736,-2.8752,-2.8758,-2.8764,-2.8765,-2.8759,-2.8764,-2.8705,-2.8705,-2.8705,0,0,-2.9106,-2.9072,-2.9066,-2.9027,-2.9001,-2.8986,-2.8944,-2.8932,-2.8919,-2.8866,-2.8852,-2.8826,-2.8789,-2.8782,-2.8777,-2.8762,-2.8778,-2.8766,-2.8771,-2.8769,-2.8762,-2.8767,-2.8772,-2.8707,-2.8707,-2.8706,0,0,-2.9153,-2.9127,-2.9125,-2.9099,-2.906,-2.9027,-2.9027,-2.8979,-2.896,-2.8945,-2.8903,-2.8888,-2.8854,-2.8828,-2.881,-2.8842,-2.8811,-2.8837,-2.8868,-2.8863,-2.8868,-2.8871,-2.888,-2.8884,-2.8838,-2.8838,-2.8838,0,-2.9195,-2.9172,-2.9128,-2.9116,-2.9098,-2.9048,-2.9044,-2.9022,-2.8978,-2.8966,-2.895,-2.8903,-2.8875,-2.8859,-2.8866,-2.8855,-2.8851,-2.8842,-2.8871,-2.8874,-2.8877,-2.8884,-2.8888,-2.8841,-2.8841,-2.8841,-2.884,0,-2.9224,-2.9208,-2.9211,-2.9168,-2.9151,-2.9144,-2.9097,-2.9084,-2.9056,-2.9024,-2.9008,-2.8971,-2.8939,-2.8934,-2.8907,-2.8913,-2.8904,-2.888,-2.8851,-2.8886,-2.8892,-2.8895,-2.8846,-2.8845,-2.8844,-2.8843,0,0,-2.9312,-2.9242,-2.9244,-2.9222,-2.9173,-2.916,-2.9149,-2.9117,-2.9106,-2.9076,-2.9064,-2.9034,-2.901,-2.899,-2.8959,-2.8955,-2.8978,-2.893,-2.8928,-2.8938,-2.8978,-2.8995,-2.9,-2.8957,-2.8957,-2.8958,-2.898,0,-2.9349,-2.9326,-2.9284,-2.9275,-2.9258,-2.9208,-2.9198,-2.9166,-2.9135,-2.9115,-2.9082,-2.906,-2.9032,-2.9019,-2.9012,-2.8976,-2.8985,-2.8974,-2.8943,-2.8942,-2.8952,-2.9003,-2.9022,-2.9045,-2.8983,-2.8983,-2.8983,0,-2.9389,-2.9361,-2.9349,-2.9298,-2.9289,-2.9281,-2.9246,-2.9229,-2.919,-2.9168,-2.9143,-2.9108,-2.9091,-2.9065,-2.904,-2.9033,-2.9018,-2.8998,-2.8997,-2.8992,-2.8964,-2.8997,-2.9052,-2.9055,-2.8987,-2.8987,-2.8987,0,-2.9451,-2.941,-2.9396,-2.938,-2.9321,-2.9315,-2.929,-2.925,-2.9232,-2.9202,-2.9189,-2.9157,-2.9139,-2.9114,-2.907,-2.9056,-2.9048,-2.9019,-2.9027,-2.9028,-2.9027,-2.9027,-2.9079,-2.902,-2.902,-2.902,-2.902,0,-2.9495,-2.9489,-2.9423,-2.9415,-2.9405,-2.9356,-2.9348,-2.9318,-2.9282,-2.9266,-2.9221,-2.9206,-2.915,-2.9128,-2.9093,-2.9075,-2.9068,-2.9048,-2.9038,-2.9051,-2.9053,-2.9039,-2.9036,-2.9021,-2.9021,-2.9021,-2.9021,0,-2.9562,-2.9518,-2.95,-2.9444,-2.943,-2.9425,-2.9377,-2.9365,-2.9332,-2.9311,-2.9303,-2.9249,-2.922,-2.9174,-2.9132,-2.9109,-2.9096,-2.9081,-2.9109,-2.9103,-2.9112,-2.9111,-2.9154,-2.9156,-2.9099,-2.91,-2.91,0,-2.9593,-2.9587,-2.953,-2.9515,-2.9491,-2.9469,-2.945,-2.94,-2.9382,-2.9335,-2.9328,-2.9296,-2.9267,-2.9223,-2.9179,-2.9146,-2.9129,-2.9146,-2.9124,-2.9135,-2.9126,-2.9126,-2.9123,-2.9151,-2.9152,-2.9153,-2.9154,0,-2.965,-2.9628,-2.9602,-2.9568,-2.9546,-2.9517,-2.9485,-2.9475,-2.9418,-2.9399,-2.9368,-2.9346,-2.9301,-2.9268,-2.9228,-2.92,-2.9166,-2.9161,-2.916,-2.9172,-2.9187,-2.9176,-2.9121,-2.916,-2.9159,-2.9159,-2.9159,-2.9158,-2.9698,-2.9689,-2.9646,-2.9618,-2.9589,-2.9559,-2.9545,-2.9508,-2.9482,-2.9441,-2.9413,-2.9384,-2.9341,-2.9283,-2.9257,-2.9231,-2.9217,-2.9217,-2.9217,-2.9217,-2.922,-2.9192,-2.9224,-2.9224,-2.9224,-2.9223,-2.9223,0,-2.9751,-2.972,-2.9695,-2.9651,-2.9628,-2.9598,-2.956,-2.9542,-2.9517,-2.948,-2.9452,-2.9415,-2.9382,-2.9335,-2.9297,-2.9286,-2.9269,-2.9277,-2.9277,-2.927,-2.9237,-2.924,-2.9291,-2.9291,-2.9291,-2.9291,-2.9291,-2.9291,-2.9776,-2.9757,-2.9729,-2.9695,-2.9664,-2.9634,-2.9615,-2.9586,-2.9556,-2.9517,-2.9489,-2.9458,-2.9416,-2.9374,-2.9342,-2.9328,-2.9315,-2.9328,-2.931,-2.9279,-2.9273,-2.9267,-2.927,-2.9327,-2.9327,-2.9345,-2.9345,-2.9345]}]]